Location: Newark
(53.3333°N, 83.7500°E)
Time: 15:06:51
(UTC+00:00)

SR - Pass Details

Date: 18 November 2019
Orbit: 573 x 882 km, 66.7° (Epoch: 06 December)

Event Time Altitude Azimuth Distance (km) Brightness Sun altitude
Rises 11:22:24 0° 249° (WSW) 3,273 ? -8.5°
Reaches altitude 10° 11:24:53 10° 257° (WSW) 2,391 ? -8.8°
Maximum altitude 11:30:07 40° 327° (NNW) 1,228 ? -9.6°
Drops below altitude 10° 11:35:39 10° 36° (NE) 2,533 ? -10.3°
Enters shadow 11:36:14 - 38° (NE) 2,736 ? -10.4°
